Regional Weather Roundup
Issued by NWS Sioux Falls, SD

Home | Current Version | Previous Version | Graphics & Text | Print | Product List | Glossary Off
Versions: 1 2 3 4 5 6 7 8 9 10 11 12 13 14 15 16 17 18 19 20 21 22 23 24 25 26 27 28 29 30 31 32 33 34 35 36 37 38 39 40 41 42 43 44 45 46 47 48 49 50

000
ASUS43 KFSD 280510
RWRFSD

WEATHER ROUNDUP FOR SE SOUTH DAKOTA/SW MINNESOTA/NW IOWA
NATIONAL WEATHER SERVICE SIOUX FALLS SD
1200 AM CDT THU JUL 28 2016

NOTE: "FAIR" INDICATES FEW OR NO CLOUDS BELOW 12,000 FEET WITH NO
SIGNIFICANT WEATHER AND OR OBSTRUCTIONS TO VISIBILITY.


SDZ038>040-050-052>070-280600-
SOUTHEAST SOUTH DAKOTA

CITY           SKY/WX    TMP DP  RH WIND       PRES   REMARKS
BROOKINGS      PTCLDY    62  59  90 N6          N/A
CHAMBERLAIN    CLOUDY    73  63  71 NE6       30.09S
HURON          CLOUDY    68  61  78 NE7       30.06R
MADISON        FAIR      63  63 100 N8        30.07S
MITCHELL       CLOUDY    70  63  78 NE3       30.06R
SIOUX FALLS    CLOUDY    68  62  81 N6        30.04S
WINNER         FAIR      64  60  87 W5        30.12R
YANKTON        CLOUDY    72  63  73 E5        30.02S
$$

MNZ071-072-080-081-089-090-097-098-280600-
SOUTHWEST MINNESOTA

CITY           SKY/WX    TMP DP  RH WIND       PRES   REMARKS
FAIRMONT       MOCLDY    68  64  88 NW5       30.00S
JACKSON        CLEAR     66  63  88 CALM      30.03S
LUVERNE        PTCLDY    68  59  73 N6        30.04S
MARSHALL       CLOUDY    63  61  93 NW8       30.04S
MONTEVIDEO     CLOUDY    64  59  82 NW5       30.05R
REDWOOD FALLS  PTCLDY    68  63  84 N6        30.01S
TRACY          CLOUDY    67  63  87 NW6       30.04S
WINDOM         CLOUDY    66  63  88 NW3       30.02F
WORTHINGTON    CLOUDY    66  63  90 NW8       30.04S
$$

IAZ001>003-012>014-020>022-031-032-NEZ013-014-SDZ071-280600-
NORTHWEST IOWA

CITY           SKY/WX    TMP DP  RH WIND       PRES   REMARKS
CHEROKEE       PTCLDY    70  66  88 N6        30.00F
DENISON        CLOUDY    72  68  88 CALM      29.98S
ESTHERVILLE    CLEAR     65  65 100 N7        30.01S
LE MARS        PTCLDY    70  64  83 N5        30.02R
SHELDON        CLOUDY    66  64  94 N6        30.00F
SIOUX CITY     PTCLDY    78  64  61 N9        30.00S
SPENCER        CLOUDY    69  64  84 N9        30.01S
STORM LAKE     CLEAR     70  66  88 N8        30.01F
$$

ABBREVIATIONS USED IN REMARKS
   TC - TEMPERATURE IN CELSIUS
  WCI - WIND CHILL INDEX
   HX - HEAT INDEX
  VSB - VISIBILITY




USA.gov is the U.S. government's official web portal to all federal, state and local government web resources and services.